Weather in Chistoye Pole

Russia / Krasnoyarsk Krai     55°14′51″N   91°11′03″E
temp.,
°C
wind,
m/s
gust,
m/s
humid.,
%
clouds,
%
prec.,
mm/h
press.,
hPa
HPBL,
m
8 may, sat
sat801:00+11wnw386176 0.1 1012305
04:00+8wsw487261 0.0 1013157
07:00+9wsw366387 0.0 1015341
10:00+11wnw595727 0.3 10141438
13:00+13wnw71142100 0.4 10132426
16:00+14wnw91335100 0.0 10122467
19:00+11nw61163100 0.2 10121509
22:00+8wsw2372100 0.8 1014299
9 may, sun
sun901:00+6w498240 1.4 1014624
04:00+5nw488599 0.1 1014753
07:00+5nw51071100 0.3 10161180
10:00+6nw6757100 0.1 10161624
13:00+7nw5749100 0.3 10161892
16:00+8nnw664593 0.1 10171726
19:00+8nnw564993 0.4 10181472
22:00+4n36765 0.2 1020149
10 may, mon
mon1001:00+2nnw35915 0.2 1021114
04:00+1nw22945 0.0 102228
07:00+3n247829 0.0 1023227
10:00+8ne335697 0.0 10231279
13:00+9nne235097 0.0 10221534
16:00+10ene335290 0.0 10221126
19:00+10ne235462 0.0 1022780
22:00+6ne22705 0.0 102111
11 may, tue
tue1101:00+4ene33770 0.0 102032
04:00+3ne33850 0.0 101865
07:00+6ene410750 0.0 1017404
10:00+10e78562 0.0 1015952
13:00+14e56397 0.0 10141549
16:00+15ene443418 0.0 10121943
19:00+15ene454066 0.0 10111285
22:00+10ne4106013 0.0 1013255
12 may, wed
wed1201:00+7ne38705 0.0 1013215
04:00+5n237644 0.0 101341
07:00+7nne376571 0.0 1014338
10:00+11ne565148 0.0 10141184
13:00+12ne5649100 1.2 10141627
16:00+13ne564597 0.9 10151684
19:00+12ne56476 1.3 10161718
22:00+8ne36655 0.0 1019122